Terminal Aerodrome Forecast
Issued by NWS Melbourne, FL

Home | Current Version | Previous Version | Text Only | Print | Product List | Glossary On
Versions: 1 2 3 4 5 6 7 8 9 10 11 12 13 14 15 16 17 18 19 20 21 22 23 24 25
000
FTUS42 KMLB 302100 AAA
TAFMCO
TAF AMD
KMCO 302107Z 3021/3118 32007KT P6SM SCT060 SCT250
     FM310000 10008KT P6SM FEW060 SCT250
     FM311400 15004KT P6SM SCT025=

USA.gov is the U.S. government's official web portal to all federal, state and local government web resources and services.